Location: Bowman Observatory
(41.0326°N, 73.6210°W)
Time: 01:46:02
(UTC-05:00)

Cosmos 2298 Rocket - Visible Passes

Search period start: 28 November 2014 00:00
Search period end: 08 December 2014 00:00
Orbit: 776 x 785 km, 74.0° (Epoch: 27 November)

Date Brightness Start Highest point End Pass type
(mag) Time Alt. Az. Time Alt. Az. Time Alt. Az.
29 Nov 6.5 19:26:36 10° NNW 19:27:03 12° NNW 19:27:03 12° NNW visible
30 Nov 5.8 18:53:24 10° N 18:54:58 19° N 18:54:58 19° N visible
01 Dec 5.3 18:20:22 10° N 18:23:04 25° NNE 18:23:04 25° NNE visible
01 Dec 6.6 20:02:50 10° NW 20:03:40 14° NW 20:03:40 14° NW visible
02 Dec 5.1 17:47:31 10° N 17:51:29 23° NE 17:51:29 23° NE visible
02 Dec 5.6 19:29:11 10° NNW 19:32:06 30° NW 19:32:06 30° NW visible
03 Dec 5.5 17:15:00 10° NNE 17:18:06 15° NE 17:20:27 12° E visible
03 Dec 4.1 18:55:44 10° NNW 19:01:04 76° WSW 19:01:07 76° WSW visible
04 Dec 3.9 18:22:26 10° NNW 18:27:46 69° ENE 18:31:59 16° SSE visible
04 Dec 6.8 20:06:46 10° WNW 20:09:25 14° W 20:12:03 10° SW visible
05 Dec 4.3 17:49:18 10° N 17:54:24 44° ENE 17:59:27 10° SE visible
05 Dec 6.2 19:32:20 10° NW 19:36:23 23° W 19:40:26 10° SSW visible
06 Dec 4.8 17:16:19 10° N 17:20:57 29° ENE 17:25:32 10° ESE visible
06 Dec 5.5 18:58:29 10° NW 19:03:18 35° W 19:08:04 10° SSW visible
07 Dec 4.7 18:24:54 10° NNW 18:30:07 57° WSW 18:35:18 10° S visible
